[[{"header":{"parameterUnit":"m.s-1","parameterCategory":1,"la1":30.2991,"la2":30.254,"lo1":-89.0895,"lo2":-89.0444,"dy":0.0017,"dx":0.0017,"nx":28,"ny":28,"refTime":"2025-05-18T21:00:00:Z","depth":0,"parameterNumber":2,"parameterNumberName":"U-component_of_WINDS"},"data":[0,0,0,0,0,0,0,0,0,0,0,0,0,0,0,0,0,0,0,0,0,0,0,0,0,0,0,0,0,0,0,0,0,0,0,0,0,0,0,0,0,0,0,0,0,0,0,0,0,0,0,0,0,0,0,0,0,0,0.1183,0.1185,0,0.1285,0.1286,0.1288,0.1332,0.1332,0.1332,0.1332,0.1437,0.144,0.1443,0,0,0,0,0,0,0,0,0,0,0,0,0,0.1028,0.103,0.1183,0.1185,0.1186,0.1285,0.1286,0.1288,0.1332,0.1332,0.1332,0.1332,0.1436,0.144,0.1443,0,0,0,0,0,0,0,0,0,0,0,0,0,0.1109,0.1031,0.1183,0.122,0.1224,0.1285,0.1286,0.1288,0.1332,0.1332,0.1332,0.1331,0.1435,0.1439,0.1444,0.1475,0,0,0.1457,0.1459,0,0,0,0,0,0,0,0,0.1104,0.1115,0.1213,0.1217,0.1222,0.1296,0.127,0.1351,0.1332,0.1291,0.1332,0.1331,0.139,0.1398,0.1418,0.148,0.1485,0.1457,0.146,0.1462,0.1463,0,0,0,0,0,0,0,0.1099,0.111,0.1224,0.1215,0.122,0.1231,0.1243,0.1286,0.1341,0.1295,0.1298,0.131,0.1393,0.1414,0.1421,0.1486,0.1457,0.1461,0.1464,0.1466,0.158,0.158,0,0,0,0,0,0,0.1087,0.1105,0.122,0.1227,0.1162,0.1234,0.1247,0.1272,0.134,0.1351,0.131,0.1311,0.1406,0.1416,0.1425,0.1466,0.1462,0.1466,0.1469,0.1579,0.158,0.158,0,0,0,0,0,0,0.1083,0.1097,0.1216,0.1167,0.1183,0.1237,0.1265,0.1275,0.1295,0.1352,0.1362,0.1321,0.1406,0.1418,0.1462,0.1471,0.1468,0.1472,0.1579,0.1579,0.158,0.155,0,0,0,0,0,0,0.1079,0.1095,0.1108,0.1167,0.1186,0.1252,0.1266,0.1277,0.1303,0.1306,0.1365,0.1374,0.1407,0.1455,0.1467,0.1477,0.1476,0.1578,0.1579,0.158,0.155,0.1549,0.1548,0,0,0,0,0,0.1073,0.1096,0.1108,0.1122,0.1203,0.1252,0.1263,0.13,0.1303,0.1317,0.1352,0.1373,0.1468,0.146,0.1473,0.1484,0.1578,0.1579,0.158,0.1551,0.155,0.1549,0,0,0,0,0,0,0.1037,0.1104,0.1119,0.1161,0.1201,0.126,0.1278,0.1297,0.1337,0.1338,0.1383,0.1395,0.1435,0.1464,0.1454,0.1518,0.1525,0.1528,0.1498,0.1497,0.1496,0.1489,0.1479,0,0,0,0,0,0.1033,0.1068,0.1125,0.1157,0.1176,0.1223,0.1246,0.1271,0.1314,0.1331,0.137,0.1411,0.1451,0.1475,0.1515,0.1554,0.1568,0.1569,0.1568,0.1567,0.1569,0.1592,0.1593,0.1583,0.1583,0.1583,0,0,0.1027,0.1068,0.1088,0.1151,0.1184,0.1219,0.1237,0.1274,0.13,0.1337,0.1381,0.1411,0.1459,0.1501,0.1521,0.1526,0.1575,0.1568,0.1566,0.157,0.1593,0.1594,0.1595,0.1583,0.1583,0.1583,0,0,0.1034,0.1069,0.1099,0.1132,0.1182,0.1214,0.122,0.1277,0.1298,0.1342,0.137,0.1402,0.1469,0.1502,0.1528,0.1546,0.1566,0.1558,0.1553,0.1575,0.1576,0.1577,0.1583,0.1585,0.156,0.156,0.156,0,0.1021,0.1075,0.1112,0.1147,0.1174,0.1208,0.1239,0.1269,0.133,0.1347,0.1352,0.1435,0.1471,0.152,0.1525,0.1544,0.1554,0.1552,0.1572,0.1574,0.1575,0.1582,0.1584,0.1559,0.1559,0.1559,0.1559,0,0.1055,0.1092,0.1111,0.1168,0.1196,0.1229,0.1272,0.1296,0.1318,0.1349,0.1393,0.1436,0.1485,0.1498,0.152,0.1551,0.1552,0.1564,0.1571,0.1574,0.1581,0.1584,0.1557,0.1557,0.1558,0.1558,0,0,0.1043,0.112,0.1126,0.1152,0.121,0.1239,0.1273,0.132,0.134,0.138,0.141,0.1464,0.1475,0.1504,0.153,0.1549,0.1561,0.1558,0.156,0.1557,0.1597,0.1589,0.1591,0.1574,0.1574,0.1575,0.1593,0,0.1058,0.1121,0.1155,0.1203,0.1238,0.127,0.13,0.1338,0.1367,0.14,0.1433,0.1471,0.1482,0.15,0.152,0.1555,0.1569,0.1554,0.1602,0.1603,0.1589,0.1595,0.1586,0.1602,0.1596,0.1597,0.1597,0,0.1085,0.1124,0.1175,0.1228,0.1244,0.127,0.1315,0.1346,0.139,0.141,0.1442,0.1467,0.1504,0.1508,0.1559,0.1548,0.157,0.159,0.1591,0.1598,0.1601,0.1602,0.1607,0.161,0.1602,0.1602,0.1601,0,0.1071,0.1137,0.1176,0.1197,0.126,0.1277,0.1304,0.1348,0.1373,0.1413,0.143,0.1473,0.1497,0.1529,0.1566,0.1565,0.1614,0.162,0.1631,0.163,0.1641,0.164,0.165,0.1654,0.1654,0.1654,0.1653,0,0.1085,0.1115,0.117,0.1194,0.1229,0.1268,0.1301,0.1331,0.1369,0.1399,0.143,0.1457,0.1503,0.1537,0.1565,0.1604,0.1614,0.1631,0.1639,0.1629,0.1627,0.1644,0.1644,0.1654,0.1654,0.1654,0.1654,0,0.1076,0.1114,0.1159,0.1214,0.1229,0.1252,0.1299,0.1324,0.1354,0.1392,0.1403,0.145,0.1491,0.153,0.1585,0.1604,0.1642,0.1652,0.1627,0.1632,0.164,0.1639,0.1663,0.1668,0.1667,0.1667,0.1667,0,0.1082,0.1106,0.1164,0.1186,0.1212,0.1248,0.1274,0.1313,0.1339,0.139,0.1408,0.1451,0.1488,0.1551,0.1591,0.1633,0.1644,0.1649,0.165,0.164,0.1644,0.1642,0.1645,0.1648,0.1648,0.1648,0.1648,0,0.109,0.1107,0.1144,0.1187,0.1217,0.1252,0.1289,0.1306,0.1352,0.1379,0.1421,0.1449,0.1505,0.1547,0.1593,0.1621,0.1642,0.1647,0.1652,0.1642,0.1627,0.1636,0.1625,0.1647,0.1647,0.1647,0.1647,0.1647,0.1089,0.1112,0.1156,0.1195,0.1226,0.126,0.1285,0.1318,0.1354,0.1402,0.1423,0.1465,0.1508,0.1572,0.1599,0.1633,0.1638,0.1645,0.1647,0.1648,0.1646,0.1621,0.1641,0.1641,0.1641,0.1642,0.1642,0,0.1098,0.1128,0.1164,0.1214,0.1245,0.1261,0.1302,0.1327,0.1364,0.1402,0.1437,0.1484,0.1525,0.1567,0.161,0.1629,0.164,0.1639,0.1639,0.1645,0.1639,0.163,0.163,0.163,0.163,0.163,0.163,0.163,0.1107,0.1146,0.1168,0.1223,0.1253,0.1294,0.1316,0.1347,0.1378,0.1429,0.1463,0.149,0.153,0.1576,0.1614,0.1625,0.164,0.1636,0.165,0.1644,0.1645,0.1646,0.1638,0.1639,0.1639,0.1654,0.1654,0.1654]},{"header":{"parameterUnit":"m.s-1","parameterCategory":1,"la1":30.2991,"la2":30.254,"lo1":-89.0895,"lo2":-89.0444,"dy":0.0017,"dx":0.0017,"nx":28,"ny":28,"refTime":"2025-05-18T21:00:00:Z","depth":0,"parameterNumber":3,"parameterNumberName":"V-component_of_WINDS"},"data":[0,0,0,0,0,0,0,0,0,0,0,0,0,0,0,0,0,0,0,0,0,0,0,0,0,0,0,0,0,0,0,0,0,0,0,0,0,0,0,0,0,0,0,0,0,0,0,0,0,0,0,0,0,0,0,0,0,0,4.9432,4.9431,0,4.9337,4.9336,4.9335,4.9253,4.9252,4.9251,4.925,4.9146,4.9144,4.9142,0,0,0,0,0,0,0,0,0,0,0,0,0,4.9539,4.9537,4.9433,4.9431,4.943,4.9337,4.9336,4.9334,4.9253,4.9252,4.9251,4.925,4.9146,4.9144,4.9142,0,0,0,0,0,0,0,0,0,0,0,0,0,4.9473,4.9537,4.9433,4.9378,4.9373,4.9337,4.9336,4.9334,4.9253,4.9252,4.9251,4.9249,4.9147,4.9144,4.9142,4.915,0,0,4.9133,4.9131,0,0,0,0,0,0,0,0,4.9477,4.9469,4.9388,4.9382,4.9376,4.9306,4.9335,4.9272,4.9254,4.9298,4.925,4.9249,4.92,4.9192,4.9177,4.9145,4.9141,4.9132,4.9131,4.9129,4.9128,0,0,0,0,0,0,0,4.9481,4.9472,4.9394,4.9387,4.9379,4.9357,4.9346,4.9323,4.9257,4.9294,4.9288,4.9278,4.9196,4.918,4.9174,4.9139,4.9132,4.913,4.9128,4.9127,4.911,4.9111,0,0,0,0,0,0,4.9495,4.9477,4.9397,4.9392,4.9424,4.9356,4.9344,4.9329,4.9258,4.9245,4.928,4.9275,4.9186,4.9178,4.917,4.9175,4.9129,4.9127,4.9125,4.9108,4.911,4.9111,0,0,0,0,0,0,4.9498,4.9489,4.9401,4.9433,4.942,4.9356,4.934,4.9328,4.9312,4.9247,4.9234,4.9276,4.9184,4.9174,4.9156,4.9171,4.9125,4.9123,4.9107,4.9109,4.9111,4.9187,0,0,0,0,0,0,4.9501,4.949,4.9494,4.9433,4.9419,4.9391,4.9341,4.9327,4.9308,4.9301,4.924,4.9228,4.9183,4.9161,4.9153,4.9166,4.912,4.9105,4.9108,4.911,4.9183,4.9191,4.9198,0,0,0,0,0,4.9505,4.9518,4.9495,4.9486,4.9423,4.9392,4.9383,4.9333,4.931,4.9312,4.927,4.923,4.9171,4.916,4.9151,4.9162,4.9104,4.9107,4.911,4.9179,4.919,4.9198,0,0,0,0,0,0,4.958,4.9509,4.9482,4.9477,4.9442,4.9379,4.938,4.9345,4.9314,4.9309,4.9245,4.9232,4.9221,4.9189,4.9179,4.9167,4.9132,4.9133,4.9188,4.9197,4.9205,4.9212,4.9118,0,0,0,0,0,4.9596,4.9579,4.9518,4.9518,4.9502,4.9445,4.943,4.9394,4.9354,4.9338,4.9294,4.9255,4.9227,4.921,4.9181,4.9178,4.9163,4.9181,4.9189,4.9196,4.9197,4.9193,4.92,4.9121,4.9121,4.9121,0,0,4.9628,4.9588,4.9581,4.9532,4.9501,4.9483,4.9432,4.9416,4.9402,4.9334,4.9316,4.9282,4.9234,4.9224,4.9217,4.9197,4.9216,4.92,4.9206,4.9203,4.9197,4.9204,4.9211,4.9123,4.9122,4.9122,0,0,4.9679,4.9647,4.9644,4.9614,4.9568,4.953,4.9529,4.9472,4.9448,4.9429,4.9378,4.9359,4.9313,4.9281,4.9259,4.9298,4.926,4.929,4.9331,4.9327,4.9333,4.9338,4.9352,4.9358,4.9292,4.9292,4.9292,0,4.9724,4.9698,4.9646,4.9633,4.9613,4.9554,4.955,4.9522,4.9468,4.9455,4.9435,4.9376,4.934,4.9321,4.9331,4.9315,4.9311,4.9297,4.9337,4.9342,4.9346,4.9358,4.9363,4.9296,4.9296,4.9295,4.9295,0,4.9756,4.9738,4.9741,4.9693,4.9673,4.9665,4.961,4.9596,4.9562,4.9526,4.9506,4.9461,4.9422,4.9414,4.938,4.939,4.938,4.9349,4.9312,4.9358,4.9369,4.9373,4.9302,4.9301,4.9299,4.9298,0,0,4.9849,4.9775,4.9776,4.9754,4.9699,4.9684,4.9672,4.9636,4.9625,4.9589,4.9577,4.954,4.9512,4.9486,4.9448,4.9445,4.9479,4.9414,4.9412,4.9428,4.9487,4.951,4.9517,4.9453,4.9454,4.9455,4.9491,0,4.989,4.9869,4.9822,4.9814,4.9797,4.9741,4.973,4.9695,4.966,4.9639,4.96,4.9575,4.9539,4.9524,4.9518,4.9476,4.949,4.9473,4.9439,4.9439,4.9453,4.9522,4.9546,4.9583,4.9494,4.9495,4.9496,0,4.9935,4.9906,4.9897,4.9844,4.9835,4.9827,4.979,4.9771,4.9729,4.9704,4.9677,4.9636,4.9618,4.9586,4.956,4.955,4.9533,4.9511,4.9511,4.9505,4.947,4.9518,4.9593,4.9599,4.9501,4.9501,4.9501,0,5.0004,4.9962,4.9952,4.9934,4.9872,4.9868,4.9841,4.9798,4.978,4.9747,4.9734,4.9699,4.968,4.9653,4.9602,4.9583,4.9582,4.9545,4.956,4.9561,4.9562,4.9562,4.9635,4.9552,4.9552,4.9552,4.9552,0,5.0055,5.0051,4.9982,4.9976,4.997,4.9916,4.9911,4.9878,4.9841,4.9826,4.9774,4.976,4.9695,4.9673,4.9633,4.9618,4.961,4.9588,4.9577,4.9592,4.9595,4.958,4.9576,4.9553,4.9553,4.9553,4.9552,0,5.013,5.0084,5.0069,5.0012,4.9998,4.9996,4.9946,4.9937,4.99,4.9881,4.9874,4.9815,4.9787,4.9735,4.969,4.9664,4.9657,4.9639,4.9672,4.9666,4.9683,4.9682,4.9749,4.9755,4.9669,4.9669,4.967,0,5.0165,5.0162,5.0106,5.0093,5.0069,5.0049,5.0031,4.9977,4.996,4.9912,4.9908,4.9877,4.9849,4.9806,4.9758,4.9724,4.9704,4.973,4.9699,4.9714,4.9704,4.9705,4.9705,4.9737,4.9738,4.9739,4.974,0,5.0233,5.021,5.0187,5.0156,5.0137,5.0109,5.0078,5.007,5.0009,4.9992,4.9964,4.9943,4.9899,4.9868,4.9827,4.9797,4.9758,4.9751,4.9752,4.9767,4.9787,4.9777,4.9691,4.9749,4.9748,4.9747,4.9747,4.9747,5.0288,5.0283,5.0243,5.0219,5.0191,5.0164,5.0153,5.0116,5.0092,5.0055,5.0024,4.9998,4.9955,4.9898,4.987,4.9848,4.9829,4.9832,4.9832,4.9834,4.984,4.9791,4.984,4.984,4.9839,4.9839,4.9839,0,5.0353,5.0325,5.0304,5.0264,5.0245,5.0212,5.0177,5.0162,5.0142,5.0106,5.0081,5.0048,5.0018,4.9969,4.9934,4.9926,4.9907,4.9918,4.9918,4.9912,4.9858,4.9861,4.9934,4.9934,4.9934,4.9934,4.9934,4.9934,5.0384,5.0374,5.0347,5.0321,5.0292,5.0269,5.0252,5.0226,5.0198,5.0165,5.0141,5.011,5.0068,5.003,5.0,4.9986,4.9976,4.9993,4.9973,4.9924,4.9915,4.9907,4.9909,4.9991,4.9991,5.0028,5.0029,5.0029]}]]